Powrót do katalogu

ONEWEB-0508

AktywnyŁącznośćPO
NORAD 54126·PAYLOAD·🇬🇧 United Kingdom

Wystrzelony Oct 22, 2022 z Satish Dhawan Space Centre

Loading…

Następne Przeloty (najbliższe 24 godziny)

TLE

ŚwieżeSource: CelesTrak SupGP

Epoka: Sep 14, 2026, 16:03 UTC

1 54126C 22138P   26257.66925185 -.00002505  00000+0 -62656-2 0  2575
2 54126  87.9104 287.1478 0002013  84.1733 334.9812 13.19726818    15

Śledź ONEWEB-0508 w czasie rzeczywistym z AllMySat

Download on the App Store